Weather History for Inverness, FL

Change the Weather History Date:

Friday, February 22, 2013

  Actual Average (KOCF) Record (KOCF)
Temperature  
Mean Temperature 22 °C -  
Max Temperature 30 °C 21 °C 28 °C (1997)
Min Temperature 14 °C 8 °C 0 °C (1999)
Cooling Degree Days 6    
Growing Degree Days 22 (Base 50)    
Moisture  
Dew Point 17 °C    
Average Humidity 77    
Maximum Humidity 100    
Minimum Humidity 40    
Precipitation  
Precipitation 0.00 mm - - ()
Sea Level Pressure  
Sea Level Pressure 1017 hPa    
Wind  
Wind Speed 5 km/h (South)    
Max Wind Speed 23 km/h    
Max Gust Speed 29 km/h    
Visibility 15 kilometers    
Events      
Averages and records for this station are not official NWS values.
T = Trace of Precipitation, MM = Missing Value Source: NWS Daily Summary

Daily Weather History Graph

Daily Weather History Graph

Search for Another Location

Airport:

Trip Planner

Search our weather history database for the weather conditions in past years. The results will help you decide how hot, cold, wet, or windy it might be!

Date:

Astronomy

Feb. 22, 2013 Rise Set
Actual Time 7:01 AM EST 6:24 PM EST
Civil Twilight 6:37 AM EST 6:48 PM EST
Nautical Twilight 6:09 AM EST 7:16 PM EST
Astronomical Twilight 5:42 AM EST 7:43 PM EST
Moon 3:43 PM EST (2/22) 4:35 AM EST (2/22)
Length of Visible Light 12h 11m
Length of Day
11h 23m
Waxing Gibbous, 90% of the Moon is Illuminated
Feb 22
Waxing Gibbous
Feb 25
Full
Mar 4
Last Quarter
Mar 11
New
Mar 19
First Quarter

Hourly Weather History & Observations

Time (EST) Temp. Heat Index Dew Point Humidity Pressure Visibility Wind Dir Wind Speed Gust Speed Precip Events Conditions
12:15 AM 15.0 °C - 15.0 °C 100% 1017.8 hPa 16.1 km Calm Calm - N/A   Clear
12:35 AM 15.0 °C - 15.0 °C 100% 1017.5 hPa 16.1 km Calm Calm - N/A   Clear
12:55 AM 15.0 °C - 15.0 °C 100% 1017.8 hPa 16.1 km Calm Calm - N/A   Scattered Clouds
1:15 AM 15.0 °C - 15.0 °C 100% 1017.5 hPa 16.1 km Calm Calm - N/A   Overcast
1:35 AM 16.0 °C - 15.0 °C 94% 1017.8 hPa 16.1 km Calm Calm - N/A   Overcast
1:55 AM 16.0 °C - 15.0 °C 94% 1017.5 hPa 16.1 km Calm Calm - N/A   Overcast
2:15 AM 16.0 °C - 15.0 °C 94% 1017.5 hPa 16.1 km Calm Calm - N/A   Mostly Cloudy
2:35 AM 15.0 °C - 15.0 °C 100% 1017.5 hPa 16.1 km Calm Calm - N/A   Scattered Clouds
2:55 AM 15.0 °C - 15.0 °C 100% 1017.5 hPa 16.1 km Calm Calm - N/A   Mostly Cloudy
3:15 AM 16.0 °C - 15.0 °C 94% 1017.5 hPa 16.1 km Calm Calm - N/A   Mostly Cloudy
3:35 AM 16.0 °C - 15.0 °C 94% 1017.5 hPa 16.1 km Calm Calm - N/A   Mostly Cloudy
3:55 AM 15.0 °C - 15.0 °C 100% 1017.5 hPa 16.1 km Calm Calm - N/A   Scattered Clouds
4:15 AM 15.0 °C - 15.0 °C 100% 1017.5 hPa 16.1 km Calm Calm - N/A   Clear
4:35 AM 15.0 °C - 15.0 °C 100% 1017.5 hPa 16.1 km Calm Calm - N/A   Scattered Clouds
4:55 AM 15.0 °C - 15.0 °C 100% 1017.5 hPa 16.1 km Calm Calm - N/A   Scattered Clouds
5:15 AM 15.0 °C - 15.0 °C 100% 1017.5 hPa 16.1 km Calm Calm - N/A   Scattered Clouds
5:35 AM 15.0 °C - 15.0 °C 100% 1017.8 hPa 16.1 km Calm Calm - N/A   Mostly Cloudy
5:55 AM 14.0 °C - 14.0 °C 100% 1017.8 hPa 16.1 km Calm Calm - N/A   Mostly Cloudy
6:15 AM 15.0 °C - 15.0 °C 100% 1017.5 hPa 11.3 km South 7.4 km/h / 2.1 m/s - N/A   Scattered Clouds
6:35 AM 16.0 °C - 16.0 °C 100% 1017.8 hPa 11.3 km South 9.3 km/h / 2.6 m/s - N/A   Clear
6:55 AM 16.0 °C - 16.0 °C 100% 1017.8 hPa 11.3 km South 5.6 km/h / 1.5 m/s - N/A   Clear
7:15 AM 16.0 °C - 16.0 °C 100% 1018.2 hPa 8.0 km Calm Calm - N/A   Clear
7:35 AM 16.0 °C - 16.0 °C 100% 1018.5 hPa 4.8 km Calm Calm - N/A   Clear
7:55 AM 17.0 °C - 17.0 °C 100% 1018.5 hPa 8.0 km SSE 5.6 km/h / 1.5 m/s - N/A   Clear
8:15 AM 19.0 °C - 18.0 °C 94% 1018.8 hPa 16.1 km SSE 11.1 km/h / 3.1 m/s - N/A   Clear
8:35 AM 20.0 °C - 18.0 °C 88% 1018.8 hPa 16.1 km South 13.0 km/h / 3.6 m/s - N/A   Clear
8:55 AM 22.0 °C - 18.0 °C 78% 1019.2 hPa 16.1 km SSE 13.0 km/h / 3.6 m/s - N/A   Clear
9:15 AM 22.0 °C - 18.0 °C 78% 1019.2 hPa 16.1 km South 22.2 km/h / 6.2 m/s - N/A   Clear
9:35 AM 23.0 °C - 18.0 °C 73% 1018.8 hPa 16.1 km SSE 22.2 km/h / 6.2 m/s - N/A   Clear
9:55 AM 25.0 °C - 18.0 °C 65% 1018.8 hPa 16.1 km South 18.5 km/h / 5.1 m/s - N/A   Clear
10:15 AM 26.0 °C - 17.0 °C 57% 1018.8 hPa 16.1 km South 22.2 km/h / 6.2 m/s - N/A   Clear
10:35 AM 26.0 °C - 17.0 °C 57% 1018.8 hPa 16.1 km SSE 22.2 km/h / 6.2 m/s - N/A   Clear
10:55 AM 27.0 °C 27.7 °C 17.0 °C 54% 1018.8 hPa 16.1 km SSE 20.4 km/h / 5.7 m/s 27.8 km/h / 7.7 m/s N/A   Clear
11:15 AM 27.0 °C 27.7 °C 17.0 °C 54% 1018.5 hPa 16.1 km SSE 20.4 km/h / 5.7 m/s - N/A   Clear
11:35 AM 27.0 °C 27.7 °C 17.0 °C 54% 1018.5 hPa 16.1 km South 18.5 km/h / 5.1 m/s - N/A   Clear
11:55 AM 27.0 °C 27.7 °C 17.0 °C 54% 1018.2 hPa 16.1 km South 18.5 km/h / 5.1 m/s - N/A   Clear
12:15 PM 28.0 °C 28.5 °C 17.0 °C 51% 1018.2 hPa 16.1 km South 14.8 km/h / 4.1 m/s 29.6 km/h / 8.2 m/s N/A   Scattered Clouds
12:35 PM 28.0 °C 28.5 °C 17.0 °C 51% 1017.8 hPa 16.1 km SSE 18.5 km/h / 5.1 m/s - N/A   Scattered Clouds
12:55 PM 28.0 °C 28.5 °C 17.0 °C 51% 1017.5 hPa 16.1 km South 11.1 km/h / 3.1 m/s - N/A   Mostly Cloudy
1:15 PM 28.0 °C 28.5 °C 17.0 °C 51% 1017.5 hPa 16.1 km South 11.1 km/h / 3.1 m/s - N/A   Overcast
1:35 PM 29.0 °C 29.1 °C 16.0 °C 45% 1016.8 hPa 16.1 km South 16.7 km/h / 4.6 m/s - N/A   Overcast
1:55 PM 28.0 °C 28.3 °C 16.0 °C 48% 1016.8 hPa 16.1 km SSE 11.1 km/h / 3.1 m/s - N/A   Overcast
2:15 PM 30.0 °C 29.7 °C 15.0 °C 40% 1016.5 hPa 16.1 km South 11.1 km/h / 3.1 m/s - N/A   Overcast
2:35 PM 30.0 °C 29.7 °C 15.0 °C 40% 1016.5 hPa 16.1 km South 11.1 km/h / 3.1 m/s - N/A   Mostly Cloudy
2:55 PM 30.0 °C 29.7 °C 15.0 °C 40% 1016.1 hPa 16.1 km SSE 7.4 km/h / 2.1 m/s - N/A   Mostly Cloudy
3:15 PM 30.0 °C 29.7 °C 15.0 °C 40% 1016.1 hPa 16.1 km SSE 11.1 km/h / 3.1 m/s - N/A   Mostly Cloudy
3:35 PM 30.0 °C 29.7 °C 15.0 °C 40% 1015.8 hPa 16.1 km SE 11.1 km/h / 3.1 m/s - N/A   Mostly Cloudy
3:55 PM 30.0 °C 29.7 °C 15.0 °C 40% 1015.8 hPa 16.1 km East 5.6 km/h / 1.5 m/s - N/A   Overcast
4:15 PM 30.0 °C 29.7 °C 15.0 °C 40% 1015.8 hPa 16.1 km SSW 7.4 km/h / 2.1 m/s - N/A   Mostly Cloudy
4:35 PM 29.0 °C 28.6 °C 14.0 °C 40% 1015.8 hPa 16.1 km Calm Calm - N/A   Scattered Clouds
4:55 PM 30.0 °C 29.7 °C 15.0 °C 40% 1015.5 hPa 16.1 km SSE 9.3 km/h / 2.6 m/s - N/A   Mostly Cloudy
5:15 PM 30.0 °C 30.1 °C 16.0 °C 43% 1015.5 hPa 16.1 km Calm Calm - N/A   Mostly Cloudy
5:35 PM 28.0 °C 28.8 °C 18.0 °C 54% 1015.8 hPa 16.1 km West 5.6 km/h / 1.5 m/s - N/A   Mostly Cloudy
5:55 PM 27.0 °C 27.9 °C 18.0 °C 58% 1015.8 hPa 16.1 km West 5.6 km/h / 1.5 m/s - N/A   Scattered Clouds
6:15 PM 26.0 °C - 18.0 °C 61% 1016.1 hPa 16.1 km Calm Calm - N/A   Clear
6:35 PM 25.0 °C - 18.0 °C 65% 1016.5 hPa 16.1 km Calm Calm - N/A   Clear
6:55 PM 23.0 °C - 18.0 °C 73% 1016.5 hPa 16.1 km Calm Calm - N/A   Clear
7:15 PM 23.0 °C - 18.0 °C 73% 1016.8 hPa 16.1 km Calm Calm - N/A   Clear
7:35 PM 22.0 °C - 18.0 °C 78% 1017.2 hPa 16.1 km Calm Calm - N/A   Clear
7:55 PM 22.0 °C - 18.0 °C 78% 1017.5 hPa 16.1 km Calm Calm - N/A   Clear
8:15 PM 21.0 °C - 18.0 °C 83% 1017.5 hPa 16.1 km Calm Calm - N/A   Scattered Clouds
8:35 PM 20.0 °C - 18.0 °C 88% 1017.5 hPa 16.1 km Calm Calm - N/A   Scattered Clouds
8:55 PM 20.0 °C - 18.0 °C 88% 1017.8 hPa 16.1 km Calm Calm - N/A   Scattered Clouds
9:15 PM 20.0 °C - 18.0 °C 88% 1017.8 hPa 16.1 km Calm Calm - N/A   Clear
9:35 PM 19.0 °C - 18.0 °C 94% 1017.8 hPa 16.1 km Calm Calm - N/A   Clear
9:55 PM 20.0 °C - 18.0 °C 88% 1017.8 hPa 16.1 km Calm Calm - N/A   Scattered Clouds
10:15 PM 19.0 °C - 18.0 °C 94% 1017.8 hPa 16.1 km Calm Calm - N/A   Scattered Clouds
10:35 PM 19.0 °C - 18.0 °C 94% 1017.8 hPa 16.1 km Calm Calm - N/A   Mostly Cloudy
10:55 PM 19.0 °C - 18.0 °C 94% 1017.5 hPa 16.1 km Calm Calm - N/A   Overcast
11:15 PM 18.0 °C - 18.0 °C 100% 1017.2 hPa 16.1 km Calm Calm - N/A   Overcast
11:35 PM 18.0 °C - 18.0 °C 100% 1016.8 hPa 16.1 km South 5.6 km/h / 1.5 m/s - N/A   Mostly Cloudy
11:55 PM 18.0 °C - 18.0 °C 100% 1016.8 hPa 16.1 km South 5.6 km/h / 1.5 m/s - N/A   Scattered Clouds